星链-31818 (STARLINK-31818 )

导读

STARLINK-31818是美国太空探索技术公司 SpaceX 星链星座的成员,于2024年5月13日发射升空。星链计划旨在构建全球卫星互联网,为地面提供高速低延迟网络服务,该卫星入轨后将补充完善星链星座的全球覆盖能力,提升服务容量与稳定性,支撑星座的通信服务运行。

基本信息
目录编号:
59741
目录名称:
STARLINK-31818
国际标识:
2024-090M
轨道中心:
EARTH
卫星名称:
星链-31818
卫星全名:
星链-31818 (STARLINK-31818 )
卫星状态:
在轨 (已飞行766 天)
发射日期:
2024-05-13 UTC
国别 :
美国 (US)
星等 :
--
轨道信息
数据来源 国际轨道数据
星历时间: 2026-06-17T12:21:53+0800
22小时前
查看轨道信息
半长轴: 6861.192km
偏心率: 0.0001488
轨道倾角: 43.005°
近地点辐角 268.683°
升交点赤经 341.831°
平近点角 91.385°
近地点: 482.034km
远地点: 484.076km
周期: 94.267分钟
每日圈数: 15.275781
详细信息
固有亮度:
5
最大亮度:
1.5
卫星平台:
Starlink v2.0 mini
覆盖范围:
全球
运营商:
太空探索技术公司
运营商所在国:
美国
制造商(研发单位):
太空探索技术公司
制造商所在国:
美国
使用方式:
暂无
卫星简介
星链(Starlink)计划是由太空探索技术公司(SpaceX)提出的一个巨型低轨卫星互联网星座项目,计划在2019年至2024年间在太空搭建由约1.2万颗卫星组成的“星链”网络,其中1584颗将部署在地球上空550千米处的近地轨道,并从2020年开始工作。该卫星仍在工作。
2D轨道图
3D轨道图
轨道高度分析图
轨道倾角分析图
轨道综合分析图
查看轨道综合分析图